Simultaneous Nadir Overpasses (SNOs) Predictions

Prediction of SNOs between AQUA and METOP-A Satellite Orbit:

Table of predicted SNOs for the next 14.0 days since TLE Epoch: 7/14/2017
Index Date (AQUA) Time (AQUA) Lat,Lon (AQUA) SZA (AQUA ) Date (METOP-A) Time (METOP-A) Lat,Lon (METOP-A) SZA (METOP-A ) Distance(km) Time Diff (sec)
1 07/15/2017 15:12:02 -73.86, 126.12 127.50 07/15/2017 15:10:50 -73.85, 126.01 127.49 3.75 72
2 07/15/2017 16:01:31 73.96, -66.46 52.62 07/15/2017 16:01:28 73.93, -66.45 52.59 2.72 3
3 07/15/2017 16:50:58 -74.01, 101.06 127.33 07/15/2017 16:52:08 -74.02, 101.09 127.32 1.76 70
4 07/18/2017 10:46:17 -73.87,-167.46 127.01 07/18/2017 10:45:10 -73.89,-167.49 126.97 2.52 67
5 07/18/2017 11:35:46 73.98, -0.07 53.12 07/18/2017 11:35:48 73.97, 0.04 53.11 3.30 2
6 07/18/2017 12:25:15 -74.12, 167.24 126.72 07/18/2017 12:26:27 -74.11, 167.72 126.76 14.64 72
7 07/21/2017 06:20:32 -73.89,-101.07 126.46 07/21/2017 06:19:31 -73.88,-101.10 126.46 1.29 61
8 07/21/2017 07:10:00 73.95, 66.44 53.61 07/21/2017 07:10:09 73.95, 66.41 53.62 1.10 9
9 07/21/2017 07:59:34 -74.35,-126.84 125.95 07/21/2017 08:00:43 -74.35,-125.28 126.02 46.95 69
10 07/24/2017 01:54:46 -73.91, -34.68 125.87 07/24/2017 01:53:50 -73.92, -34.60 125.85 2.58 56
11 07/24/2017 02:44:14 73.98, 132.81 54.22 07/24/2017 02:44:28 73.99, 132.90 54.22 3.01 14
12 07/24/2017 03:33:52 -74.58, -60.96 125.12 07/24/2017 03:34:58 -74.58, -58.27 125.24 79.64 66
13 07/26/2017 21:29:00 -73.89, 31.80 125.27 07/26/2017 21:28:11 -73.91, 31.77 125.25 1.75 49
14 07/26/2017 22:18:28 73.96,-160.72 54.82 07/26/2017 22:18:49 73.97,-160.74 54.82 0.84 21




NCC Satellite Simultaneous Nadir Overpasses (SNOs) Prediction Service
